Theta_e
350 354 356 356 357 356 357 358 358 359 359 358 359 361 361 362 360 359 359 360 361 362 362 361 359 360 361 362 363 362 362 361 360 361 362 362 361 360 360 357 356 356 361
350 353 356 355 357 355 357 357 358 358 359 359 359 361 362 361 359 360 360 360 360 361 362 363 362 363 363 363 363 362 362 361 360 359 362 362 360 359 360 360 361 359 360
349 352 355 356 355 355 354 357 357 360 359 359 359 360 360 362 361 360 360 360 359 361 363 362 362 363 363 363 362 362 362 361 359 360 361 353 355 359 359 360 360 360 359
348 350 352 355 354 355 354 356 357 358 358 358 357 359 360 360 358 355 358 358 361 363 362 361 362 363 362 361 360 360 358 355 357 360 357 351 351 358 357 357 358 357 359
348 351 354 354 354 354 355 356 356 356 356 356 356 355 357 359 358 355 358 361 362 362 362 361 361 360 360 361 361 361 359 356 360 359 353 355 352 357 358 355 356 356 355
347 350 353 355 355 355 356 355 355 355 356 357 357 355 357 356 357 360 361 362 362 361 360 360 360 359 359 360 359 360 359 359 361 354 354 356 356 358 357 357 358 354 355
346 349 353 355 355 355 354 354 353 355 357 358 357 355 357 360 359 361 360 361 360 361 361 360 360 360 359 361 361 360 357 358 354 352 352 353 355 357 357 357 357 356 353
347 349 353 354 352 351 352 354 355 357 355 356 359 360 358 359 360 360 361 360 360 361 361 361 360 359 362 362 362 358 356 356 353 352 353 353 355 354 353 353 354 354 352
350 351 355 354 354 351 349 354 355 355 355 354 356 358 360 360 359 360 362 361 361 361 361 360 358 357 358 360 359 354 350 354 354 355 354 354 356 355 355 355 355 355 354
347 345 351 350 351 351 351 355 355 353 353 352 350 353 359 358 359 360 361 362 360 360 360 359 356 355 359 360 360 355 353 356 355 357 354 355 357 356 355 356 355 355 355
345 343 350 350 350 350 349 352 353 353 351 350 352 355 358 358 357 359 360 359 359 359 358 357 355 356 357 361 361 359 358 354 354 355 354 357 357 358 355 354 354 354 353
343 345 347 351 355 355 356 353 352 353 354 352 355 354 357 362 363 356 359 358 358 358 358 358 358 359 358 355 356 360 357 353 354 355 353 357 358 358 358 356 354 354 356
344 345 349 355 357 352 354 353 354 356 354 356 359 359 356 356 352 349 351 353 356 359 356 356 354 355 354 356 354 350 350 348 350 354 355 358 358 355 354 355 356 357 357
342 344 346 353 353 350 351 351 351 352 351 351 352 355 354 350 351 350 347 350 353 354 354 354 353 357 357 357 356 355 351 350 350 352 357 359 353 350 353 354 354 358 358
342 345 347 350 352 352 352 350 350 351 351 349 352 353 351 350 353 352 354 354 354 352 355 356 355 359 357 354 355 358 353 353 352 352 357 356 351 348 353 354 356 359 358
343 344 346 347 357 359 358 355 351 350 351 349 350 354 358 353 361 355 357 353 354 356 354 356 359 355 356 353 355 357 356 354 355 355 352 358 354 348 353 357 359 359 358
343 345 344 348 353 356 358 355 353 349 351 348 352 359 358 359 361 361 357 354 352 358 361 359 359 357 352 352 355 356 354 356 355 354 354 354 354 355 356 357 360 360 359
345 346 346 345 350 353 358 359 352 354 349 349 351 356 358 360 360 363 357 354 357 356 353 353 354 351 352 352 355 354 355 353 354 354 355 355 357 358 358 361 361 361 363
347 348 345 346 347 352 356 355 356 356 350 350 351 353 359 357 360 362 356 359 365 355 354 352 351 353 352 352 350 351 354 351 353 349 354 357 357 355 354 362 363 364 363
347 350 350 348 353 354 355 358 353 351 349 350 351 353 358 356 359 362 357 361 363 352 351 355 360 357 354 354 349 349 353 351 352 351 353 355 356 357 355 360 359 359 366
347 349 351 351 357 355 351 350 348 346 349 349 351 356 358 357 360 363 356 360 360 361 364 361 359 359 352 354 353 347 345 348 349 352 354 354 354 354 355 357 357 356 361
347 349 351 353 357 356 351 354 353 359 348 349 353 356 356 357 361 359 364 361 368 358 365 363 364 354 351 355 348 348 337 343 347 349 352 351 352 353 355 357 359 361 362
346 349 350 354 355 357 357 355 356 356 358 351 354 352 354 358 359 360 362 364 365 369 357 363 364 361 350 356 360 348 331 335 337 350 351 352 354 351 353 356 357 360 362
346 350 352 354 355 356 359 360 359 349 346 349 350 351 353 358 359 360 358 361 366 362 367 363 360 363 361 350 353 351 354 355 342 339 344 351 352 351 354 354 353 357 362
346 347 351 354 354 357 360 360 353 354 347 350 353 361 365 362 361 359 358 360 362 359 367 365 364 365 360 355 349 351 357 352 355 344 339 346 349 348 349 347 354 357 361
346 347 349 353 354 359 360 357 358 356 352 355 353 351 351 355 357 362 358 360 361 361 363 362 365 365 364 361 357 355 348 346 346 345 338 342 343 345 345 350 351 353 362
Wind_Speed
12 12 9 8 7 8 7 8 8 9 9 8 9 9 9 10 9 9 9 10 11 12 12 12 13 11 10 12 12 12 11 10 9 9 11 12 11 10 9 4 5 15 10
19 12 10 9 8 7 7 7 8 7 8 8 8 9 10 11 10 9 10 11 10 12 12 13 12 12 12 12 12 11 10 9 7 10 11 14 11 9 10 12 11 13 10
14 15 13 9 8 6 6 6 7 8 7 7 6 8 9 11 10 10 11 11 11 11 13 12 12 12 12 11 11 11 10 6 4 7 12 8 12 9 10 11 12 11 10
9 10 13 10 8 7 7 7 8 7 7 6 5 8 10 11 11 12 9 11 10 12 12 11 11 12 11 11 11 11 7 2 6 9 9 4 12 9 9 8 9 8 9
13 10 13 11 9 7 8 8 8 9 8 7 6 8 8 11 13 13 9 11 12 12 11 11 11 9 8 7 8 8 5 4 9 13 11 5 11 9 7 5 9 8 8
12 16 13 12 12 9 8 9 7 9 8 8 10 11 9 11 12 12 11 11 11 11 12 11 10 7 5 5 5 5 6 6 11 9 10 12 12 9 9 8 8 9 7
14 16 15 15 15 12 10 8 7 6 9 8 10 11 10 12 12 11 11 12 11 12 12 11 8 6 5 8 8 6 4 7 5 5 8 11 10 8 7 8 8 7 4
6 15 14 16 16 14 14 12 14 12 12 8 9 12 13 11 10 10 11 11 11 11 10 10 7 6 8 8 7 4 5 9 7 6 9 10 8 6 5 5 6 6 3
18 14 11 12 14 15 9 12 16 16 14 12 9 13 12 13 11 10 11 11 10 10 9 8 5 4 5 6 5 1 6 10 2 5 10 9 7 4 3 3 4 4 1
13 15 12 10 9 7 6 13 15 13 12 12 11 8 11 5 9 9 10 9 9 9 8 5 3 3 5 5 5 5 9 12 6 5 9 8 6 1 2 3 3 2 3
13 12 14 15 7 8 10 10 12 13 11 4 6 3 8 8 10 9 9 8 7 7 6 4 3 5 6 9 11 12 12 4 3 8 8 9 3 3 4 5 4 2 2
14 11 6 18 16 12 10 10 9 10 6 4 5 6 5 5 4 10 9 7 5 5 5 6 9 12 13 8 8 13 7 7 6 8 7 8 3 6 7 7 5 2 2
12 10 14 10 12 5 11 11 8 7 8 6 11 12 11 5 6 7 6 6 6 9 8 9 10 10 5 5 3 6 5 6 6 7 9 6 4 6 6 5 4 4 3
10 10 12 10 3 8 8 6 7 6 6 9 5 6 4 4 4 5 4 5 6 7 3 5 3 6 2 1 7 9 8 5 4 3 9 7 5 5 5 3 2 3 2
10 12 9 11 7 6 4 8 5 6 4 9 8 5 5 6 5 4 4 7 4 6 7 3 3 2 1 4 4 3 8 6 7 5 6 9 6 1 3 2 2 3 0
9 11 11 12 11 6 3 1 6 3 6 7 8 4 3 6 3 8 7 7 5 4 4 5 6 2 1 4 4 5 4 6 5 5 5 7 8 4 2 1 1 2 1
9 10 10 12 11 10 8 7 4 7 6 6 8 6 4 4 1 3 1 4 6 6 4 5 5 3 4 4 3 4 3 2 4 3 3 3 9 9 6 3 3 3 2
9 11 10 10 12 7 7 2 1 4 7 5 8 8 6 4 3 6 7 3 5 5 3 3 1 2 3 3 2 2 2 2 3 3 1 4 3 8 10 10 8 5 4
14 11 10 8 10 8 7 5 4 3 3 5 5 6 6 5 4 3 1 6 6 2 1 3 4 4 4 1 5 3 2 2 1 4 3 2 3 5 5 11 12 10 6
13 11 10 9 10 3 8 1 3 6 5 5 4 3 6 5 5 5 5 2 6 3 4 3 5 5 3 3 6 3 2 1 2 4 5 7 4 3 5 16 8 8 11
13 12 10 9 10 7 6 5 7 7 4 5 5 4 4 4 4 2 4 5 5 3 6 2 3 4 1 3 7 2 2 5 4 5 4 3 6 3 5 2 8 5 7
12 11 12 10 10 8 6 4 2 3 7 5 5 5 6 5 4 4 4 1 3 6 2 2 3 5 2 5 6 8 11 4 7 4 3 3 3 3 5 5 5 3 6
15 11 12 12 10 9 6 4 2 2 3 4 6 6 6 5 5 1 3 5 2 7 7 3 1 2 7 3 3 7 7 3 7 2 4 6 5 3 1 4 2 4 0
14 14 12 12 12 10 8 8 6 6 7 8 6 7 7 6 5 5 3 4 3 6 6 3 2 5 4 6 2 5 4 3 5 4 8 5 9 8 3 6 7 5 4
15 15 14 12 13 10 10 5 6 9 7 9 4 9 4 6 5 4 4 4 4 7 5 2 2 4 4 6 5 0 2 2 2 4 5 4 6 15 5 5 5 7 5
12 15 16 14 14 12 11 10 10 7 2 5 5 7 7 7 7 6 5 4 4 4 3 4 3 2 4 5 8 5 7 4 7 7 8 4 1 9 1 4 3 1 5
Wind_Direction
111 121 138 130 116 100 94 110 120 119 124 122 120 112 111 105 99 101 113 105 113 104 112 115 106 112 110 101 94 94 97 93 97 101 96 89 76 72 66 54 149 99 93
125 128 138 134 125 109 92 111 120 123 128 130 131 117 108 108 109 109 112 112 122 109 111 110 116 103 97 97 99 97 96 119 135 120 123 105 87 79 69 59 63 90 93
117 132 144 141 145 128 112 125 129 143 134 130 137 118 118 106 106 102 108 115 110 121 111 114 108 106 105 107 101 98 94 122 176 170 177 113 88 74 74 75 82 94 97
128 108 126 139 154 147 139 138 139 140 141 139 135 119 117 115 114 104 86 121 119 120 116 111 112 107 101 106 106 98 98 160 245 236 225 170 93 91 91 89 91 101 108
113 121 105 124 134 141 142 148 141 146 143 140 127 128 140 130 131 122 149 125 126 121 116 108 105 107 108 111 105 112 113 244 266 282 105 45 96 97 92 90 126 106 46
106 99 106 106 107 114 132 138 132 138 137 137 142 147 150 141 133 140 132 123 123 124 117 111 110 113 122 140 134 132 194 256 280 139 136 82 73 103 95 87 83 75 75
110 115 103 97 96 95 106 131 114 117 124 132 143 139 136 136 138 128 129 131 130 122 118 118 114 104 115 127 133 132 186 247 233 69 73 87 98 107 115 112 106 94 81
116 101 103 100 91 79 79 88 101 94 83 80 126 123 124 118 112 121 137 124 130 122 126 117 109 98 111 127 136 155 240 269 130 98 81 86 95 101 99 103 113 107 114
102 85 90 96 100 88 57 68 79 79 84 93 93 118 111 107 144 157 128 129 133 131 128 120 116 114 109 132 126 169 265 271 116 144 129 109 103 92 102 91 62 58 23
114 108 115 105 95 122 139 94 94 82 78 131 133 100 97 123 145 137 134 130 139 142 129 129 149 127 96 108 151 218 245 258 105 160 84 87 103 98 53 48 45 1 318
99 138 125 128 158 148 121 124 113 118 106 71 116 150 149 186 173 140 97 133 152 145 140 170 202 205 175 157 182 215 225 215 68 84 78 101 61 3 43 44 46 1 338
121 117 149 143 150 149 139 148 163 131 143 199 190 203 195 200 95 108 117 145 161 159 178 202 226 230 211 182 182 221 288 78 152 116 90 101 55 38 42 33 32 352 314
126 139 116 137 153 175 139 162 163 157 163 181 221 210 177 145 168 139 136 160 163 190 192 195 209 227 24 355 11 74 34 102 21 79 92 100 73 29 16 11 10 349 317
137 120 135 124 122 115 155 161 176 187 182 165 162 123 147 172 181 167 158 119 186 182 112 225 103 34 265 179 58 353 86 21 88 71 114 117 75 20 1 349 338 322 320
141 115 134 115 142 137 196 144 133 155 186 107 179 150 140 135 131 122 148 181 151 150 190 196 114 34 170 107 73 345 32 56 349 47 110 142 141 27 8 335 289 308 227
143 135 127 140 118 124 76 82 141 178 124 162 134 131 326 124 194 129 197 150 173 238 86 94 23 78 61 113 108 43 20 25 42 355 27 145 163 191 179 292 274 227 176
159 134 149 142 136 141 143 182 176 146 167 150 110 156 146 155 24 142 129 199 145 79 154 150 210 221 109 88 89 95 104 148 33 46 352 43 158 179 163 196 228 202 162
136 148 166 161 142 168 101 169 231 100 149 153 159 154 156 144 147 242 205 118 92 212 131 95 352 154 63 102 102 13 40 356 49 121 72 1 328 149 156 180 196 192 130
131 155 167 149 157 158 147 138 119 108 191 171 170 152 154 157 159 256 200 101 240 185 104 283 103 326 142 358 258 80 88 41 197 113 132 111 235 186 135 159 180 172 140
142 161 172 176 123 149 148 128 148 142 180 167 152 158 174 165 156 237 115 140 249 195 176 48 347 30 311 9 316 10 321 139 26 113 109 192 78 303 115 154 172 163 150
154 164 179 187 139 184 190 213 156 167 156 184 162 153 174 169 145 195 149 180 251 325 26 149 226 158 45 37 274 133 120 196 147 135 154 94 128 50 97 347 153 138 126
158 175 172 184 168 205 197 230 208 176 159 181 166 163 215 177 159 152 324 199 321 107 76 92 7 331 102 60 338 284 6 189 60 116 81 92 32 152 137 113 115 28 135
159 176 180 181 179 196 200 175 180 230 38 203 137 186 187 187 169 222 186 339 282 287 145 184 85 354 343 118 22 338 168 272 121 190 327 113 152 174 341 141 112 123 26
163 167 172 181 179 189 198 183 193 215 176 211 167 173 160 196 180 188 172 212 241 311 42 158 96 333 324 338 222 65 2 6 346 128 201 194 18 141 130 264 140 164 217
169 166 170 179 180 192 188 197 194 232 119 234 155 130 236 166 198 192 192 202 216 248 120 36 274 352 288 312 347 1 220 241 194 343 1 148 96 340 120 310 154 139 208
184 166 165 175 183 193 184 189 220 241 262 317 165 160 185 177 182 202 186 196 223 266 222 223 251 248 333 350 332 308 323 337 242 6 342 87 141 239 52 51 64 199 200